Terug naar catalogus

THORAD DELTA 1 DEB

ActiefLEO
NORAD 9795·DEBRIS·🇺🇸 United States

Gelanceerd Nov 15, 1974 vanaf Vandenberg Space Force Base

Loading…

Volgende Passages (komende 24 uur)

TLE

VersSource: Space-Track

Epoch: Sep 14, 2026, 11:10 UTC

1 09795U 74089EA  26257.46537228  .00000147  00000-0  89407-3 0  9990
2 09795 102.0390 242.8354 0298996  61.3274  88.6401 12.63514490383861

Volg THORAD DELTA 1 DEB in realtime met AllMySat

Download on the App Store